Weather History for KAXA - November, 2011

Change the Weather History Date:

Tuesday, November 15, 2011

  Actual Average Record
Temperature  
Mean Temperature 40 °F -  
Max Temperature 53 °F 43 °F 68 °F (2001)
Min Temperature 26 °F 26 °F 14 °F (2000)
Degree Days  
Heating Degree Days 24    
Moisture  
Dew Point 20 °F    
Average Humidity 43    
Maximum Humidity 65    
Minimum Humidity 28    
Precipitation  
Precipitation 0.00 in - - ()
Sea Level Pressure  
Sea Level Pressure 29.71 in    
Wind  
Wind Speed 12 mph (West)    
Max Wind Speed 23 mph    
Max Gust Speed 30 mph    
Visibility 10 miles    
Events Rain    
Averages and records for this station are not official NWS values.
T = Trace of Precipitation, MM = Missing Value Source: NWS Daily Summary

Daily Weather History Graph

Daily Weather History Graph

Search for Another Location

Airport or City:

Trip Planner

Search our weather history database for the weather conditions in past years. The results will help you decide how hot, cold, wet, or windy it might be!

Date:

Astronomy

Nov. 15, 2011 Rise Set
Actual Time 7:09 AM CST 4:53 PM CST
Civil Twilight 6:38 AM CST 5:24 PM CST
Nautical Twilight 6:04 AM CST 5:58 PM CST
Astronomical Twilight 5:30 AM CST 6:31 PM CST
Moon 9:02 PM CST (11/15) 11:10 AM CST (11/15)
Length of Visible Light 10h 45m
Length of Day
9h 44m
Waning Gibbous, 79% of the Moon is Illuminated
Nov 15
Waning Gibbous
Nov 18
Last Quarter
Nov 25
New
Dec 2
First Quarter
Dec 10
Full

Hourly Weather History & Observations

Time (CST) Temp. Windchill Dew Point Humidity Pressure Visibility Wind Dir Wind Speed Gust Speed Precip Events Conditions
12:15 AM 37.4 °F 29.3 °F 17.6 °F 45% 29.61 in 10.0 mi South 12.7 mph - N/A   Mostly Cloudy
12:35 AM 39.2 °F 33.0 °F 17.6 °F 42% 29.59 in 10.0 mi SSE 9.2 mph - N/A   Mostly Cloudy
12:55 AM 42.8 °F 36.2 °F 19.4 °F 39% 29.58 in 10.0 mi South 12.7 mph - N/A   Overcast
1:15 AM 42.8 °F 36.6 °F 21.2 °F 42% 29.61 in 10.0 mi SSW 11.5 mph 20.7 mph N/A   Light Drizzle
1:35 AM 42.8 °F - 24.8 °F 49% 29.55 in 10.0 mi Calm Calm - N/A Rain Light Rain
1:55 AM 42.8 °F 41.1 °F 23.0 °F 46% 29.54 in 10.0 mi East 3.5 mph - N/A   Scattered Clouds
2:16 AM 42.8 °F 41.1 °F 24.8 °F 49% 29.56 in 10.0 mi SSE 3.5 mph - N/A   Mostly Cloudy
2:55 AM 41.0 °F 37.1 °F 21.2 °F 45% 29.53 in 10.0 mi SE 5.8 mph - N/A   Scattered Clouds
3:15 AM 41.0 °F 35.8 °F 21.2 °F 45% 29.53 in 10.0 mi SE 8.1 mph - N/A   Clear
3:35 AM 37.4 °F 31.4 °F 21.2 °F 52% 29.53 in 10.0 mi South 8.1 mph - N/A   Clear
3:55 AM 37.4 °F 31.4 °F 21.2 °F 52% 29.53 in 10.0 mi SSW 8.1 mph - N/A   Clear
4:35 AM 35.6 °F 29.2 °F 21.2 °F 56% 29.54 in 10.0 mi SSW 8.1 mph - N/A   Clear
4:55 AM 37.4 °F 30.3 °F 23.0 °F 56% 29.54 in 10.0 mi SSW 10.4 mph - N/A   Clear
5:15 AM 37.4 °F 30.8 °F 23.0 °F 56% 29.55 in 10.0 mi SSW 9.2 mph - N/A   Clear
5:35 AM 35.6 °F 28.0 °F 23.0 °F 60% 29.55 in 10.0 mi SSW 10.4 mph - N/A   Clear
5:55 AM 35.6 °F 27.5 °F 23.0 °F 60% 29.56 in 10.0 mi SSW 11.5 mph - N/A   Clear
7:15 AM 33.8 °F 25.3 °F 23.0 °F 65% 29.60 in 10.0 mi WSW 11.5 mph - N/A   Clear
7:35 AM 37.4 °F 28.5 °F 23.0 °F 56% 29.61 in 10.0 mi West 15.0 mph - N/A   Clear
7:55 AM 37.4 °F 28.9 °F 23.0 °F 56% 29.61 in 10.0 mi West 13.8 mph - N/A   Clear
8:15 AM 39.2 °F 31.2 °F 23.0 °F 52% 29.63 in 10.0 mi West 13.8 mph - N/A   Clear
8:55 AM 39.2 °F 30.8 °F 21.2 °F 49% 29.64 in 10.0 mi West 15.0 mph - N/A   Clear
9:15 AM 42.8 °F 35.4 °F 21.2 °F 42% 29.65 in 10.0 mi West 15.0 mph - N/A   Clear
9:35 AM 44.6 °F 37.8 °F 21.2 °F 39% 29.66 in 10.0 mi West 15.0 mph - N/A   Clear
10:15 AM 42.8 °F 36.6 °F 26.6 °F 53% 29.68 in - WNW 11.5 mph - N/A   Unknown
10:35 AM 48.2 °F - 26.6 °F 43% 29.68 in 10.0 mi WNW 15.0 mph 21.9 mph N/A   Clear
10:55 AM 48.2 °F - 26.6 °F 43% 29.69 in 10.0 mi NW 18.4 mph 24.2 mph N/A   Clear
11:15 AM 51.8 °F - 26.6 °F 38% 29.69 in 10.0 mi NW 15.0 mph 20.7 mph N/A   Clear
11:35 AM 51.8 °F - 24.8 °F 35% 29.69 in 10.0 mi NW 19.6 mph 24.2 mph N/A   Clear
11:55 AM 51.8 °F - 24.8 °F 35% 29.69 in 10.0 mi WNW 15.0 mph 20.7 mph N/A   Clear
12:15 PM 51.8 °F - 23.0 °F 33% 29.70 in 10.0 mi WNW 16.1 mph 21.9 mph N/A   Clear
12:35 PM 51.8 °F - 21.2 °F 30% 29.71 in 10.0 mi West 21.9 mph 26.5 mph N/A   Clear
12:55 PM 53.6 °F - 21.2 °F 28% 29.72 in 10.0 mi WNW 19.6 mph 24.2 mph N/A   Clear
1:15 PM 53.6 °F - 21.2 °F 28% 29.73 in 10.0 mi WNW 12.7 mph 27.6 mph N/A   Clear
1:35 PM 53.6 °F - 21.2 °F 28% 29.73 in 10.0 mi West 21.9 mph 26.5 mph N/A   Clear
1:55 PM 53.6 °F - 21.2 °F 28% 29.73 in 10.0 mi West 18.4 mph 26.5 mph N/A   Clear
2:15 PM 51.8 °F - 21.2 °F 30% 29.74 in 10.0 mi WNW 17.3 mph 24.2 mph N/A   Clear
2:35 PM 51.8 °F - 19.4 °F 28% 29.75 in 10.0 mi WNW 18.4 mph 25.3 mph N/A   Clear
2:55 PM 51.8 °F - 21.2 °F 30% 29.76 in 10.0 mi WNW 21.9 mph 28.8 mph N/A   Clear
3:15 PM 50.0 °F - 19.4 °F 30% 29.77 in 10.0 mi NW 20.7 mph 26.5 mph N/A   Clear
3:35 PM 48.2 °F - 19.4 °F 32% 29.79 in 10.0 mi WNW 23.0 mph 29.9 mph N/A   Clear
3:55 PM 48.2 °F - 17.6 °F 30% 29.79 in 10.0 mi WNW 23.0 mph 27.6 mph N/A   Clear
4:15 PM 46.4 °F 39.0 °F 17.6 °F 32% 29.81 in 10.0 mi WNW 19.6 mph 27.6 mph N/A   Clear
4:35 PM 44.6 °F 35.9 °F 15.8 °F 31% 29.82 in 10.0 mi WNW 23.0 mph 28.8 mph N/A   Clear
4:55 PM 44.6 °F 36.6 °F 17.6 °F 34% 29.83 in 10.0 mi NW 19.6 mph 27.6 mph N/A   Clear
5:15 PM 42.8 °F 35.1 °F 15.8 °F 34% 29.84 in 10.0 mi NW 16.1 mph 21.9 mph N/A   Clear
5:35 PM 41.0 °F 33.5 °F 14.0 °F 33% 29.86 in 10.0 mi NW 13.8 mph 20.7 mph N/A   Clear
5:55 PM 39.2 °F 32.0 °F 15.8 °F 39% 29.88 in 10.0 mi NW 11.5 mph - N/A   Clear
6:15 PM 39.2 °F 31.6 °F 15.8 °F 39% 29.89 in 10.0 mi WNW 12.7 mph - N/A   Clear
6:35 PM 37.4 °F 29.3 °F 15.8 °F 41% 29.90 in 10.0 mi WNW 12.7 mph - N/A   Clear
6:55 PM 35.6 °F 29.9 °F 15.8 °F 44% 29.91 in 10.0 mi West 6.9 mph - N/A   Clear
7:15 PM 33.8 °F 27.0 °F 15.8 °F 48% 29.92 in 10.0 mi WNW 8.1 mph - N/A   Scattered Clouds
7:35 PM 33.8 °F 27.0 °F 15.8 °F 48% 29.93 in 10.0 mi West 8.1 mph - N/A   Clear
7:55 PM 30.2 °F 22.6 °F 14.0 °F 51% 29.94 in 10.0 mi West 8.1 mph - N/A   Clear
8:15 PM 30.2 °F 21.3 °F 12.2 °F 47% 29.94 in 10.0 mi West 10.4 mph - N/A   Clear
8:35 PM 28.4 °F 19.1 °F 12.2 °F 51% 29.95 in 10.0 mi West 10.4 mph - N/A   Clear
8:55 PM 28.4 °F 19.7 °F 12.2 °F 51% 29.96 in 10.0 mi West 9.2 mph - N/A   Clear
9:15 PM 26.6 °F 17.5 °F 12.2 °F 55% 29.97 in 10.0 mi West 9.2 mph - N/A   Clear
9:35 PM 26.6 °F 17.5 °F 12.2 °F 55% 29.97 in 10.0 mi West 9.2 mph - N/A   Clear
9:55 PM 26.6 °F 18.2 °F 12.2 °F 55% 29.97 in 10.0 mi West 8.1 mph - N/A   Clear
10:15 PM 26.6 °F 19.1 °F 12.2 °F 55% 29.98 in 10.0 mi West 6.9 mph - N/A   Clear
10:35 PM 24.8 °F 16.1 °F 10.4 °F 54% 29.97 in 10.0 mi West 8.1 mph - N/A   Clear
10:55 PM 23.0 °F 13.9 °F 10.4 °F 59% 29.99 in 10.0 mi West 8.1 mph - N/A   Clear
11:15 PM 24.8 °F 16.1 °F 12.2 °F 59% 29.99 in 10.0 mi West 8.1 mph - N/A   Clear
11:35 PM 26.6 °F 18.2 °F 12.2 °F 55% 29.99 in 10.0 mi WNW 8.1 mph - N/A   Clear
11:55 PM 23.0 °F 13.1 °F 10.4 °F 59% 30.01 in 10.0 mi West 9.2 mph - N/A   Clear